Location: Vilnius
(54.6872°N, 25.2797°E)
Time: 08:47:16
(UTC+03:00)

ISS - Visible Passes

Search period start: 01 July 2022 00:00
Search period end: 11 July 2022 00:00
Orbit: 414 x 420 km, 51.6° (Epoch: 01 July)

Date Brightness Start Highest point End Pass type
(mag) Time Alt. Az. Time Alt. Az. Time Alt. Az.
02 Jul -2.0 03:35:45 10° SSW 03:38:13 19° SSE 03:40:42 10° ESE visible
03 Jul -1.7 02:48:58 12° S 02:50:13 14° SE 02:52:06 10° ESE visible
04 Jul -2.7 03:35:14 10° SW 03:38:14 31° SSE 03:41:16 10° E visible
05 Jul -2.4 02:48:26 16° SSW 02:50:09 24° SSE 02:52:57 10° E visible
06 Jul -2.2 02:01:38 18° SSE 02:02:05 19° SSE 02:04:31 10° ESE visible
06 Jul -3.3 03:35:07 10° WSW 03:38:20 43° SSE 03:41:33 10° E visible
07 Jul -1.6 01:14:46 13° SE 01:14:46 13° SE 01:15:49 10° ESE visible
07 Jul -3.1 02:47:39 14° SW 02:50:09 37° SSE 02:53:18 10° E visible
08 Jul -2.9 02:00:41 22° SSW 02:02:00 30° SSE 02:04:59 10° E visible
08 Jul -3.5 03:35:08 10° WSW 03:38:24 50° S 03:41:41 10° ESE visible
09 Jul -2.6 01:13:35 23° SSE 01:13:51 23° SSE 01:16:36 10° E visible
09 Jul -3.5 02:46:56 10° WSW 02:50:11 47° S 02:53:26 10° E visible
10 Jul -2.1 00:26:17 17° SE 00:26:17 17° SE 00:28:05 10° ESE visible
10 Jul -3.4 01:59:07 12° WSW 02:01:57 42° SSE 02:05:09 10° E visible
10 Jul -3.5 03:35:10 10° W 03:38:26 47° S 03:41:41 10° ESE visible
10 Jul -1.7 23:38:28 12° SE 23:38:28 12° SE 23:39:18 10° ESE visible
